Location: Dunedin
(45.8900°S, 170.5000°E)
Time: 17:11:27
(UTC+13:00)

ISS - Visible Passes

Search period start: 22 March 2019 00:00
Search period end: 01 April 2019 00:00
Orbit: 406 x 411 km, 51.6° (Epoch: 22 March)

Date Brightness Start Highest point End Pass type
(mag) Time Alt. Az. Time Alt. Az. Time Alt. Az.
27 Mar -0.9 06:35:31 10° NNE 06:37:06 13° NE 06:38:41 10° ENE visible
28 Mar -2.8 07:18:54 10° NW 07:22:08 46° NE 07:25:24 10° ESE visible
29 Mar -2.0 06:28:39 12° NNW 06:31:09 28° NE 06:34:05 10° E visible
30 Mar -1.4 05:40:01 17° NE 05:40:14 17° NE 05:42:28 10° E visible
30 Mar -3.8 07:13:03 10° WNW 07:16:25 84° SSW 07:19:49 10° ESE visible
31 Mar -3.4 06:24:02 33° NW 06:25:19 60° NNE 06:28:39 10° ESE visible
